Location: Boone Canyon
(38.3180°N, 119.2504°W)
Time: 17:31:14
(UTC+00:00)

SJ-6F - Pass Details

Date: 18 September 2020
Orbit: 570 x 594 km, 97.8° (Epoch: 20 October)

Event Time Altitude Azimuth Distance (km) Brightness Sun altitude
Rises 12:19:09 0° 12° (NNE) 2,806 8.3 -16.8°
Reaches altitude 10° 12:21:19 10° 13° (NNE) 1,898 7.4 -16.4°
Maximum altitude 12:25:26 87° 100° (E) 582 4.4 -15.6°
Drops below altitude 10° 12:29:30 10° 192° (SSW) 1,871 6.8 -14.8°
Enters shadow 12:31:25 - 193° (SSW) 2,673 7.6 -14.5°
